Regional Weather Roundup
Issued by NWS Raleigh/Durham, NC

Current Version | Previous Version | Text Only | Print | Product List | Glossary On
Versions: 1 2 3 4 5 6 7 8 9 10 11 12 13 14 15 16 17 18 19 20 21 22 23 24 25 26 27 28 29 30 31 32 33 34 35 36 37 38 39 40 41 42 43 44 45 46 47 48 49 50
000
ASUS42 KRAH 032310
RWRRAH
NORTH CAROLINA WEATHER ROUNDUP
NATIONAL WEATHER SERVICE RALEIGH NC
600 PM EST TUE MAR 03 2015

NOTE: "FAIR" INDICATES FEW OR NO CLOUDS BELOW 12,000 FEET WITH NO
SIGNIFICANT WEATHER AND/OR OBSTRUCTIONS TO VISIBILITY.

NCZ001-053-055-056-065-067-040000-
WESTERN NORTH CAROLINA

CITY           SKY/WX    TMP DP  RH WIND       PRES   REMARKS
ASHEVILLE      LGT RAIN  50  45  83 SE9       30.09F
JEFFERSON      CLOUDY    40  32  75 S3        30.05S
MORGANTON      CLOUDY    43  38  82 E3        30.17S
HICKORY        CLOUDY    41  37  86 CALM      30.13F
RUTHERFORDTON  CLOUDY    46  40  78 S8        30.14F
MOUNT AIRY     CLOUDY    39  37  92 CALM      30.14F FOG
BOONE          MOCLDY    40  34  81 SE3       30.07F
$$

NCZ021-022-025-041-071-084-088-040000-
CENTRAL NORTH CAROLINA

CITY           SKY/WX    TMP DP  RH WIND       PRES   REMARKS
CHARLOTTE      CLOUDY    42  37  82 S5        30.16F
GREENSBORO     DRIZZLE   37  36  96 S5        30.14S FOG     WCI  33
WINSTON-SALEM  CLOUDY    38  35  89 S5        30.15F FOG     WCI  34
RALEIGH-DURHAM DRIZZLE   36  33  89 CALM      30.18F FOG
FORT BRAGG     CLOUDY    38  36  95 CALM      30.18F
FAYETTEVILLE   CLOUDY    38  37  97 E3        30.19F FOG
BURLINGTON     CLOUDY    36  33  89 W3        30.17R FOG
LAURINBURG     CLOUDY    39  37  92 E6        30.19F FOG     WCI  35
$$

NCZ011-015-027-028-043-044-047-080-103-040000-
NORTHEASTERN NORTH CAROLINA

CITY           SKY/WX    TMP DP  RH WIND       PRES   REMARKS
ROCKY MT-WILSO LGT RAIN  38  36  92 W3        30.20F FOG
GREENVILLE     DRIZZLE   41  41 100 NW3       30.21S
WASHINGTON     DRIZZLE   42  40  93 CALM      30.19F
ELIZABETH CITY CLOUDY    43  35  73 S3        30.17F
MANTEO         CLOUDY    46  41  81 S7        30.18F
CAPE HATTERAS  CLOUDY    52  47  83 S15       30.19F
$$

NCZ078-087-090-091-093-098-101-040000-
SOUTHEASTERN NORTH CAROLINA

CITY           SKY/WX    TMP DP  RH WIND       PRES   REMARKS
LUMBERTON      LGT RAIN  41  39  93 NE5       30.19F FOG
GOLDSBORO      MIX PCPN  39  39 100 NW3       30.18F FOG
KINSTON        DRZL/FOG  41  41 100 NW3       30.21R VSB 1
KENANSVILLE    CLOUDY    40  40  99 NW3       30.21R FOG
NEW BERN       LGT RAIN  46  40  79 CALM      30.19F
CHERRY POINT   DRIZZLE   47  42  83 SE3       30.18F
BEAUFORT       CLOUDY    56  52  86 SE9       30.17F
JACKSONVILLE   LGT RAIN  47  44  90 N3        30.18S VSB 1/2
WILMINGTON     LGT RAIN  47  46  97 CALM      30.17S FOG
$$



USA.gov is the U.S. government's official web portal to all federal, state and local government web resources and services.